[[{"header":{"parameterUnit":"m.s-1","parameterCategory":1,"la1":30.2991,"la2":30.254,"lo1":-89.0895,"lo2":-89.0444,"dx":0.0017,"dy":0.0017,"nx":28,"ny":28,"refTime":"2023-01-22T03:00:00:Z","depth":0,"parameterNumber":2,"parameterNumberName":"U-component_of_WINDS"},"data":[0,0,0,0,0,0,0,0,0,0,0,0,0,0,0,0,0,0,0,0,0,0,0,0,0,0,0,0,0,0,0,0,0,0,0,0,0,0,0,0,0,0,0,0,0,0,0,0,0,0,0,0,0,0,0,0,0,0,-3.9634,-3.9636,0,-3.9831,-3.9833,-3.9835,-3.9913,-3.9912,-3.9911,-3.9911,-4.0114,-4.012,-4.0126,0,0,0,0,0,0,0,0,0,0,0,0,0,-3.9325,-3.933,-3.9634,-3.9636,-3.9639,-3.9831,-3.9833,-3.9836,-3.9913,-3.9912,-3.9911,-3.9911,-4.0112,-4.0119,-4.0127,0,0,0,0,0,0,0,0,0,0,0,0,0,-3.9484,-3.9332,-3.9633,-3.97,-3.9708,-3.983,-3.9833,-3.9837,-3.9913,-3.9912,-3.9911,-3.991,-4.011,-4.0119,-4.0128,-4.0198,0,0,-4.0155,-4.0158,0,0,0,0,0,0,0,0,-3.9475,-3.9495,-3.9688,-3.9696,-3.9705,-3.9846,-3.9799,-3.9958,-3.9913,-3.9835,-3.9911,-3.991,-4.0026,-4.0042,-4.0081,-4.0208,-4.0217,-4.0155,-4.0161,-4.0165,-4.0167,0,0,0,0,0,0,0,-3.9464,-3.9487,-3.9712,-3.969,-3.9701,-3.972,-3.9742,-3.983,-3.9933,-3.9842,-3.9848,-3.987,-4.003,-4.0072,-4.0086,-4.022,-4.0155,-4.0163,-4.0169,-4.0172,-4.0414,-4.0415,0,0,0,0,0,0,-3.9442,-3.9478,-3.9706,-3.9718,-3.9585,-3.9727,-3.9751,-3.9802,-3.9932,-3.9951,-3.987,-3.9873,-4.0057,-4.0075,-4.0093,-4.0184,-4.0165,-4.0173,-4.0178,-4.0413,-4.0415,-4.0416,0,0,0,0,0,0,-3.9435,-3.9461,-3.9698,-3.9599,-3.9631,-3.9733,-3.9789,-3.9806,-3.9847,-3.9954,-3.9972,-3.9894,-4.0057,-4.0081,-4.0171,-4.0192,-4.0177,-4.0185,-4.0412,-4.0414,-4.0415,-4.0366,0,0,0,0,0,0,-3.9425,-3.9458,-3.9486,-3.9599,-3.9636,-3.9772,-3.9791,-3.981,-3.9862,-3.9867,-3.998,-3.9998,-4.0058,-4.0158,-4.018,-4.0204,-4.0192,-4.041,-4.0413,-4.0415,-4.0366,-4.0366,-4.0366,0,0,0,0,0,-3.9414,-3.9465,-3.9487,-3.9514,-3.9673,-3.9773,-3.9794,-3.9861,-3.9864,-3.9892,-3.9961,-3.9995,-4.0186,-4.0166,-4.0192,-4.0219,-4.0409,-4.0412,-4.0414,-4.0367,-4.0366,-4.0366,0,0,0,0,0,0,-3.9352,-3.9481,-3.9507,-3.9596,-3.9673,-3.9786,-3.9824,-3.9859,-3.9937,-3.9938,-4.002,-4.0044,-4.0128,-4.0183,-4.0158,-4.0294,-4.03,-4.0308,-4.0255,-4.0256,-4.0255,-4.024,-4.0199,0,0,0,0,0,-3.9348,-3.9418,-3.9528,-3.9596,-3.9633,-3.9721,-3.9768,-3.9813,-3.9896,-3.9929,-4.0004,-4.0084,-4.0162,-4.0212,-4.029,-4.0375,-4.0401,-4.0406,-4.0406,-4.0405,-4.0411,-4.0459,-4.0463,-4.0424,-4.0424,-4.0424,0,0,-3.9342,-3.9421,-3.9461,-3.9585,-3.965,-3.9721,-3.9748,-3.9823,-3.9876,-3.9941,-4.003,-4.0088,-4.0183,-4.027,-4.0313,-4.0319,-4.0427,-4.0408,-4.0407,-4.0413,-4.0462,-4.0466,-4.0469,-4.0426,-4.0425,-4.0425,0,0,-3.9366,-3.9434,-3.9497,-3.9561,-3.9659,-3.9717,-3.9732,-3.9841,-3.9881,-3.9972,-4.0022,-4.0087,-4.022,-4.0285,-4.0336,-4.0384,-4.0418,-4.0407,-4.0405,-4.0451,-4.0454,-4.0457,-4.0474,-4.0479,-4.0413,-4.0413,-4.0412,0,-3.9346,-3.9455,-3.9525,-3.9597,-3.965,-3.9711,-3.9775,-3.9835,-3.9953,-3.9988,-3.9993,-4.0161,-4.0229,-4.0332,-4.0344,-4.0383,-4.0403,-4.0394,-4.0448,-4.0452,-4.0456,-4.0473,-4.0479,-4.041,-4.0411,-4.0411,-4.0411,0,-3.9425,-3.9499,-3.9539,-3.965,-3.9708,-3.9776,-3.9857,-3.9907,-3.9947,-4.0005,-4.0096,-4.018,-4.0276,-4.0304,-4.0344,-4.0413,-4.0414,-4.0432,-4.044,-4.0456,-4.0473,-4.048,-4.0408,-4.0408,-4.0409,-4.0409,0,0,-3.9415,-3.9564,-3.9578,-3.9629,-3.9741,-3.98,-3.987,-3.9963,-4.0004,-4.0084,-4.0144,-4.0255,-4.0273,-4.033,-4.0379,-4.0419,-4.0451,-4.0433,-4.0437,-4.0433,-4.0532,-4.0516,-4.0522,-4.0475,-4.0476,-4.0478,-4.0523,0,-3.9454,-3.9582,-3.9647,-3.9747,-3.9816,-3.9875,-3.9936,-4.0012,-4.0068,-4.0135,-4.0198,-4.0275,-4.0293,-4.0327,-4.037,-4.0438,-4.0472,-4.0436,-4.0532,-4.0535,-4.0506,-4.0532,-4.0516,-4.0555,-4.0531,-4.0532,-4.0533,0,-3.9516,-3.9594,-3.97,-3.9803,-3.9835,-3.9889,-3.9979,-4.0042,-4.0129,-4.0167,-4.023,-4.0278,-4.0354,-4.0356,-4.0463,-4.0437,-4.048,-4.052,-4.0523,-4.0534,-4.0534,-4.0543,-4.0569,-4.0575,-4.0544,-4.0543,-4.0542,0,-3.9497,-3.9629,-3.9709,-3.9751,-3.9874,-3.991,-3.9963,-4.0049,-4.01,-4.0179,-4.0213,-4.03,-4.0348,-4.0414,-4.0484,-4.0479,-4.0584,-4.0592,-4.0617,-4.0615,-4.0636,-4.0634,-4.0669,-4.0665,-4.0665,-4.0665,-4.0665,0,-3.9533,-3.9596,-3.9702,-3.9752,-3.9824,-3.9898,-3.9967,-4.0025,-4.0101,-4.0163,-4.0219,-4.0276,-4.0365,-4.0433,-4.0488,-4.0568,-4.0589,-4.0622,-4.0636,-4.0617,-4.0612,-4.0646,-4.0645,-4.0666,-4.0666,-4.0666,-4.0665,0,-3.9524,-3.9598,-3.969,-3.9798,-3.9827,-3.9875,-3.9968,-4.0018,-4.0077,-4.0154,-4.0177,-4.0269,-4.0352,-4.0428,-4.0539,-4.0576,-4.0657,-4.0675,-4.0627,-4.0634,-4.0655,-4.0652,-4.0713,-4.0725,-4.0712,-4.0712,-4.0712,0,-3.9542,-3.9591,-3.9705,-3.975,-3.9801,-3.9873,-3.9925,-4.0001,-4.0053,-4.0155,-4.0193,-4.028,-4.0354,-4.0484,-4.0562,-4.0647,-4.0667,-4.0682,-4.068,-4.0659,-4.0666,-4.0662,-4.0667,-4.0681,-4.0681,-4.0681,-4.068,0,-3.9565,-3.9599,-3.9672,-3.9758,-3.9818,-3.989,-3.9963,-3.9997,-4.0086,-4.0142,-4.0227,-4.0284,-4.0397,-4.0482,-4.0576,-4.0632,-4.0671,-4.0681,-4.0691,-4.0672,-4.0642,-4.0658,-4.0624,-4.0679,-4.0679,-4.0679,-4.0679,-4.0679,-3.957,-3.9616,-3.9703,-3.9782,-3.9845,-3.9912,-3.9964,-4.0029,-4.0101,-4.0198,-4.0238,-4.0324,-4.041,-4.054,-4.0595,-4.0664,-4.0672,-4.0687,-4.0691,-4.0693,-4.0689,-4.0631,-4.0681,-4.0681,-4.0682,-4.0682,-4.0682,0,-3.9596,-3.9654,-3.9726,-3.9826,-3.9888,-3.9919,-4.0002,-4.0052,-4.0127,-4.0203,-4.0274,-4.0371,-4.0455,-4.0538,-4.0627,-4.0666,-4.0686,-4.0686,-4.0684,-4.0696,-4.0677,-4.0659,-4.0668,-4.0668,-4.0668,-4.0668,-4.0668,-4.0668,-3.9616,-3.9696,-3.974,-3.9851,-3.991,-3.9994,-4.0038,-4.01,-4.0161,-4.0267,-4.0336,-4.039,-4.047,-4.0564,-4.0642,-4.0664,-4.0694,-4.0689,-4.0716,-4.0697,-4.0697,-4.0698,-4.0681,-4.0695,-4.0695,-4.073,-4.073,-4.073]},{"header":{"parameterUnit":"m.s-1","parameterCategory":1,"la1":30.2991,"la2":30.254,"lo1":-89.0895,"lo2":-89.0444,"dx":0.0017,"dy":0.0017,"nx":28,"ny":28,"refTime":"2023-01-22T03:00:00:Z","depth":0,"parameterNumber":3,"parameterNumberName":"V-component_of_WINDS"},"data":[0,0,0,0,0,0,0,0,0,0,0,0,0,0,0,0,0,0,0,0,0,0,0,0,0,0,0,0,0,0,0,0,0,0,0,0,0,0,0,0,0,0,0,0,0,0,0,0,0,0,0,0,0,0,0,0,0,0,2.7265,2.7267,0,2.7417,2.7419,2.7421,2.742,2.7418,2.7416,2.7415,2.7571,2.7577,2.7583,0,0,0,0,0,0,0,0,0,0,0,0,0,2.6977,2.6982,2.7265,2.7267,2.7269,2.7417,2.7419,2.7421,2.7421,2.7418,2.7416,2.7414,2.757,2.7577,2.7584,0,0,0,0,0,0,0,0,0,0,0,0,0,2.7113,2.6984,2.7265,2.7287,2.729,2.7417,2.7419,2.7422,2.7421,2.7418,2.7415,2.7413,2.7567,2.7576,2.7585,2.77,0,0,2.7612,2.7616,0,0,0,0,0,0,0,0,2.7105,2.7124,2.7282,2.7285,2.7289,2.7397,2.7375,2.7515,2.7422,2.7372,2.7415,2.7411,2.7516,2.7529,2.7564,2.7708,2.7714,2.7613,2.7619,2.7623,2.7625,0,0,0,0,0,0,0,2.7096,2.7117,2.7325,2.7284,2.7289,2.729,2.7306,2.7402,2.7459,2.7376,2.7376,2.7394,2.7517,2.7555,2.7568,2.7717,2.7613,2.7621,2.7627,2.763,2.7965,2.7968,0,0,0,0,0,0,2.7082,2.7109,2.7321,2.733,2.7188,2.7297,2.7315,2.7365,2.7457,2.7469,2.7396,2.7393,2.7541,2.7557,2.7573,2.7716,2.7623,2.7631,2.7636,2.7961,2.7965,2.7969,0,0,0,0,0,0,2.7076,2.7101,2.7314,2.722,2.7247,2.7305,2.7362,2.737,2.7408,2.7473,2.7483,2.7424,2.754,2.756,2.7669,2.7721,2.7635,2.7643,2.7957,2.7962,2.7967,2.8001,0,0,0,0,0,0,2.7067,2.7098,2.7142,2.7221,2.7252,2.7407,2.7365,2.7375,2.7423,2.7421,2.7502,2.7513,2.7539,2.7656,2.7678,2.7732,2.765,2.7953,2.7959,2.7966,2.7996,2.8007,2.8017,0,0,0,0,0,2.7057,2.7145,2.7144,2.717,2.7308,2.741,2.7428,2.7456,2.7427,2.7473,2.7515,2.751,2.7712,2.7667,2.7692,2.775,2.7949,2.7957,2.7965,2.7991,2.8005,2.8016,0,0,0,0,0,0,2.7072,2.7156,2.7156,2.7272,2.7334,2.741,2.7467,2.7469,2.7541,2.7536,2.7567,2.7586,2.7695,2.7733,2.7681,2.7867,2.7827,2.784,2.7838,2.7852,2.7862,2.7851,2.7658,0,0,0,0,0,2.7088,2.7164,2.7234,2.733,2.7361,2.7409,2.7454,2.747,2.7536,2.7562,2.7612,2.7676,2.7754,2.7805,2.788,2.8001,2.802,2.8053,2.8064,2.8072,2.8083,2.8152,2.8168,2.7995,2.7995,2.7994,0,0,2.7124,2.7179,2.7225,2.7334,2.7384,2.7462,2.7431,2.7514,2.7573,2.7575,2.7681,2.772,2.7794,2.7909,2.7963,2.7945,2.8135,2.8082,2.8088,2.8095,2.8162,2.8178,2.8193,2.8,2.7999,2.7998,0,0,2.7229,2.7278,2.7364,2.7415,2.7491,2.7522,2.7543,2.7619,2.7645,2.7752,2.7755,2.7826,2.7959,2.8012,2.8056,2.8183,2.8182,2.8206,2.8261,2.8328,2.8342,2.8354,2.8401,2.8417,2.8217,2.8217,2.8217,0,2.7264,2.7381,2.7408,2.7493,2.7542,2.7547,2.7635,2.7683,2.778,2.7814,2.7792,2.796,2.801,2.8139,2.817,2.8205,2.8231,2.8198,2.8337,2.835,2.8362,2.8407,2.8425,2.822,2.822,2.8219,2.8219,0,2.7421,2.7503,2.7564,2.7657,2.7712,2.7798,2.784,2.7893,2.7904,2.7938,2.8048,2.8108,2.8196,2.8228,2.824,2.8359,2.8346,2.833,2.8291,2.8381,2.8424,2.8441,2.8224,2.8223,2.8222,2.8221,0,0,2.754,2.7648,2.767,2.7713,2.7798,2.7862,2.7949,2.8035,2.8081,2.8147,2.8222,2.8335,2.8322,2.8372,2.839,2.8448,2.8547,2.8426,2.8428,2.8448,2.8685,2.8698,2.8717,2.8546,2.855,2.8552,2.8679,0,2.7656,2.781,2.7837,2.7973,2.8049,2.8055,2.8131,2.8192,2.8227,2.8297,2.8335,2.8416,2.8391,2.8422,2.8479,2.8523,2.8595,2.8514,2.8618,2.8621,2.8601,2.8739,2.8753,2.887,2.8696,2.8699,2.8701,0,2.7811,2.7882,2.8025,2.8101,2.8134,2.8202,2.8284,2.8351,2.842,2.8441,2.8498,2.851,2.8602,2.8557,2.8685,2.8629,2.8673,2.8701,2.8706,2.8718,2.8668,2.8757,2.8908,2.8926,2.8728,2.8725,2.8724,0,2.7886,2.8017,2.812,2.8157,2.8247,2.8295,2.8335,2.8401,2.8452,2.8524,2.8557,2.8639,2.8684,2.8747,2.8781,2.8745,2.8907,2.8865,2.8929,2.8928,2.8964,2.8962,2.9125,2.8989,2.8989,2.8989,2.8988,0,2.8014,2.8101,2.8156,2.8219,2.8318,2.8349,2.8446,2.8485,2.8544,2.8617,2.8626,2.8694,2.8733,2.8807,2.8834,2.8937,2.8957,2.8978,2.8984,2.8978,2.8976,2.9009,2.9002,2.8993,2.8992,2.8991,2.899,0,2.8115,2.8154,2.8267,2.8344,2.8365,2.8435,2.85,2.8563,2.8597,2.8688,2.8712,2.8766,2.8853,2.8893,2.9001,2.9019,2.9137,2.9137,2.9114,2.9117,2.9179,2.9173,2.9371,2.94,2.9243,2.9244,2.9245,0,2.8194,2.8262,2.8346,2.8395,2.8436,2.8514,2.8566,2.8599,2.8653,2.8738,2.8791,2.8878,2.8951,2.909,2.914,2.9223,2.9226,2.9289,2.9239,2.9231,2.923,2.9226,2.9234,2.9299,2.9301,2.9302,2.9303,0,2.8332,2.8349,2.8423,2.8505,2.8566,2.8632,2.8697,2.8737,2.878,2.884,2.893,2.8986,2.9096,2.9184,2.927,2.9312,2.9316,2.9319,2.9338,2.9334,2.9319,2.933,2.9141,2.9314,2.9313,2.9312,2.9312,2.9311,2.8427,2.8488,2.8557,2.864,2.8692,2.8752,2.8816,2.8858,2.8933,2.9026,2.904,2.9136,2.9205,2.9322,2.9367,2.9443,2.9428,2.9456,2.9463,2.947,2.9475,2.9305,2.9459,2.9458,2.9458,2.9458,2.9458,0,2.8567,2.8612,2.8688,2.8778,2.8844,2.884,2.8912,2.8968,2.9052,2.9116,2.9187,2.929,2.9376,2.9432,2.9519,2.9569,2.9573,2.9591,2.9589,2.9599,2.9483,2.9458,2.9586,2.9586,2.9586,2.9586,2.9586,2.9586,2.8648,2.8752,2.8777,2.8908,2.8952,2.9046,2.9088,2.9144,2.9195,2.9311,2.9382,2.9418,2.9479,2.957,2.9649,2.9663,2.9696,2.9715,2.9729,2.962,2.9607,2.9594,2.9571,2.9721,2.9721,2.9839,2.984,2.9841]}]]